TA2VIP-13 Weather Reports


Display with metric or nautical units.
time (UTC)temp
F
wind
direction
speed
MPH
gust
MPH
rain 1hr
in
rain 24hr
in
rain mn
in
humidity
%
barometer
mb
20260902100036 84 0 0.0 0.0 0.00 0.00 0.00 50 1015.0
20260902095036 82 260 5.0 5.0 0.00 0.00 0.00 50 1015.0
20260902094036 82 260 5.0 5.0 0.00 0.00 0.00 50 1015.0
20260902093036 82 260 5.0 5.0 0.00 0.00 0.00 50 1015.0
20260902092036 80 0 0.0 0.0 0.00 0.00 0.00 50 1015.0
20260902091036 80 0 0.0 0.0 0.00 0.00 0.00 50 1015.0
20260902090036 80 0 0.0 0.0 0.00 0.00 0.00 50 1015.0
20260902085036 80 0 0.0 0.0 0.00 0.00 0.00 50 1015.0
20260902084036 80 0 0.0 0.0 0.00 0.00 0.00 50 1015.0
20260902083036 80 0 0.0 0.0 0.00 0.00 0.00 50 1015.0
20260902082036 77 110 4.0 4.0 0.00 0.00 0.00 50 1015.0
20260902081036 77 110 4.0 4.0 0.00 0.00 0.00 50 1015.0
20260902080036 77 110 4.0 4.0 0.00 0.00 0.00 50 1015.0
20260902075006 77 0 0.0 0.0 0.00 0.00 0.00 50 1015.0
20260902074006 77 0 0.0 0.0 0.00 0.00 0.00 50 1015.0
20260902073006 77 0 0.0 0.0 0.00 0.00 0.00 50 1015.0
20260902072006 77 0 0.0 0.0 0.00 0.00 0.00 50 1015.0
20260902071006 77 0 0.0 0.0 0.00 0.00 0.00 50 1015.0
20260902070007 77 0 0.0 0.0 0.00 0.00 0.00 50 1015.0
20260902065006 73 0 0.0 0.0 0.00 0.00 0.00 50 1015.0
20260902064006 73 0 0.0 0.0 0.00 0.00 0.00 50 1015.0
20260902063006 73 0 0.0 0.0 0.00 0.00 0.00 50 1015.0
20260902062006 69 0 0.0 0.0 0.00 0.00 0.00 50 1015.0
20260902061006 69 0 0.0 0.0 0.00 0.00 0.00 50 1015.0
20260902060006 69 0 0.0 0.0 0.00 0.00 0.00 50 1015.0
20260902055006 68 0 0.0 0.0 0.00 0.00 0.00 50 1015.0
20260902054006 68 0 0.0 0.0 0.00 0.00 0.00 50 1015.0
20260902053006 68 0 0.0 0.0 0.00 0.00 0.00 50 1015.0
20260902052006 62 0 0.0 0.0 0.00 0.00 0.00 50 1015.0
20260902051006 62 0 0.0 0.0 0.00 0.00 0.00 50 1015.0
20260902050008 62 0 0.0 0.0 0.00 0.00 0.00 50 1015.0
20260902045006 59 0 0.0 0.0 0.00 0.00 0.00 50 1015.0
20260902044006 59 0 0.0 0.0 0.00 0.00 0.00 50 1015.0
20260902043006 59 0 0.0 0.0 0.00 0.00 0.00 50 1015.0
20260902042006 59 0 0.0 0.0 0.00 0.00 0.00 50 1015.0
20260902041006 59 0 0.0 0.0 0.00 0.00 0.00 50 1015.0
20260902035936 59 0 0.0 0.0 0.00 0.00 0.00 50 1015.0
20260902034936 57 0 0.0 0.0 0.00 0.00 0.00 50 1015.0
20260902033936 57 0 0.0 0.0 0.00 0.00 0.00 50 1015.0
20260902032936 57 0 0.0 0.0 0.00 0.00 0.00 50 1015.0
20260902031936 59 0 0.0 0.0 0.00 0.00 0.00 50 1015.0
20260902030936 59 0 0.0 0.0 0.00 0.00 0.00 50 1015.0
20260902025936 59 0 0.0 0.0 0.00 0.00 0.00 50 1015.0
20260902024936 59 200 2.0 2.0 0.00 0.00 0.00 50 1015.0
20260902023936 59 200 2.0 2.0 0.00 0.00 0.00 50 1015.0
20260902022936 59 200 2.0 2.0 0.00 0.00 0.00 50 1015.0
20260902021936 59 0 0.0 0.0 0.00 0.00 0.00 50 1015.0
20260902020936 59 0 0.0 0.0 0.00 0.00 0.00 50 1015.0
20260902015936 59 0 0.0 0.0 0.00 0.00 0.00 50 1015.0
20260902014936 62 60 2.0 2.0 0.00 0.00 0.00 50 1015.0
20260902013936 62 60 2.0 2.0 0.00 0.00 0.00 50 1015.0
20260902012936 62 60 2.0 2.0 0.00 0.00 0.00 50 1015.0
20260902011936 62 0 0.0 0.0 0.00 0.00 0.00 50 1015.0
20260902010936 62 0 0.0 0.0 0.00 0.00 0.00 50 1015.0
20260902005936 62 0 0.0 0.0 0.00 0.00 0.00 50 1015.0
20260902004936 60 0 0.0 0.0 0.00 0.00 0.00 50 1015.0
20260902003936 60 0 0.0 0.0 0.00 0.00 0.00 50 1015.0
20260902002936 60 0 0.0 0.0 0.00 0.00 0.00 50 1015.0
20260902001936 62 0 0.0 0.0 0.00 0.00 0.00 50 1015.0
20260902000936 62 0 0.0 0.0 0.00 0.00 0.00 50 1015.0
20260901235936 62 0 0.0 0.0 0.00 0.00 0.00 50 1015.0
20260901234936 62 0 0.0 0.0 0.00 0.00 0.00 50 1015.0
20260901233937 62 0 0.0 0.0 0.00 0.00 0.00 50 1015.0
20260901232936 62 0 0.0 0.0 0.00 0.00 0.00 50 1015.0
20260901230907 62 0 0.0 0.0 0.00 0.00 0.00 50 1015.0
20260901225907 62 0 0.0 0.0 0.00 0.00 0.00 50 1015.0
20260901224907 62 30 5.0 5.0 0.00 0.00 0.00 50 1015.0
20260901223907 62 30 5.0 5.0 0.00 0.00 0.00 50 1015.0
20260901222907 62 30 5.0 5.0 0.00 0.00 0.00 50 1015.0
20260901221907 62 20 5.0 5.0 0.00 0.00 0.00 50 1015.0
20260901220907 62 20 5.0 5.0 0.00 0.00 0.00 50 1015.0
20260901215907 62 20 5.0 5.0 0.00 0.00 0.00 50 1015.0
20260901214907 66 0 0.0 0.0 0.00 0.00 0.00 50 1015.0
20260901213907 66 0 0.0 0.0 0.00 0.00 0.00 50 1015.0
20260901212907 66 0 0.0 0.0 0.00 0.00 0.00 50 1015.0
20260901211907 64 0 0.0 0.0 0.00 0.00 0.00 50 1015.0
20260901210907 64 0 0.0 0.0 0.00 0.00 0.00 50 1015.0
20260901205907 64 0 0.0 0.0 0.00 0.00 0.00 50 1015.0
20260901204907 68 0 0.0 0.0 0.00 0.00 0.00 50 1015.0
20260901203907 68 0 0.0 0.0 0.00 0.00 0.00 50 1015.0
20260901202907 68 0 0.0 0.0 0.00 0.00 0.00 50 1015.0
20260901201907 69 0 0.0 0.0 0.00 0.00 0.00 50 1015.0
20260901200907 69 0 0.0 0.0 0.00 0.00 0.00 50 1015.0
20260901195907 69 0 0.0 0.0 0.00 0.00 0.00 50 1015.0
20260901194907 69 0 0.0 0.0 0.00 0.00 0.00 50 1015.0
20260901193907 69 0 0.0 0.0 0.00 0.00 0.00 50 1015.0
20260901192907 69 0 0.0 0.0 0.00 0.00 0.00 50 1015.0